THOR ABLESTAR DEB, 658

Orbit data source: Space-Track

THOR ABLESTAR DEB, 658 is space debris in LEO originally from a launch on Thu, 29 Jun 1961 UTC launched from the Air Force Eastern Test Range (AFETR). Debris objects in space refer to the collection of defunct objects orbiting the Earth. Examples of debris include non-operational satellites, rocket bodies, and fragments generated from explosions, collisions, or faulty payload assembly.

Loading next visibility...
Identifier
658, 1961-015HK
Orbit
LEO
Country
Flag of USUS
Related business
Manufacturer
Unknown
Mission
Spacecraft
Bus & Motor
Unknown
Mass
Unknown
Launch date (UTC)
1961-06-29 (65 years ago)
Launch vehicle
Unknown
Launch site
Air Force Eastern Test Range (AFETR)
Object type
Payload
Rocket body
Debris
Shape & HBR
Unknown shape, 0.1 m
Radar Cross Section
Small (<0.1 m²)

Expand to show TLE details & history
Last TLE update: 11 hours ago

TLE from 11 hours ago
0 THOR ABLESTAR DEB
1   658U 61015HK  26125.44671402  .00000863  00000-0  11440-2 0  9995
2   658  65.8639 233.2867 0359029 235.4937 121.1723 13.41745836 53861
Epoch: 2026-05-05T10:43Z
TLE epoch observation values (Epoch: 2026-05-05T10:43:16.091Z)
Latitude
0.00006°
Longitude
-150.85175°
Altitude
1,250.638 km
Speed
7.159 km/s
True Right ascension
15h 33m 08s
True Declination
0° 00' 00"
Sunlit
Object was in full shadow at epoch
Visualization orbit readout
Latitude
Unknown
Longitude
Unknown
Altitude
Unknown
Speed
Unknown
Apparent Right ascension
Unknown
Apparent Declination
Unknown
Sunlit
N/A
Visualization observer readout
Local Sidereal Time
05:51:26
Azimuth
Unknown
Elevation
Unknown
Doppler factor
Unknown
Orbital elements
Apogee altitude
1,369.852 km
Perigee altitude
832.784 km
Semi-major axis
7,479.455 km
Eccentricity
0.0359
Inclination
65.8639°
RAAN
233.2867°
Arg. of periapsis
235.4937°
True anomaly
124.6104°
Mean anomaly
121.1723°
Eccentric anomaly
122.89948°
Mean motion
3.35535 °/min
Orbital period
107.29 mins
BSTAR
0.001144
Loading maneuver chart data...
Computing Atmospheric mass density...
Loading historical data...
Loading historical data...
Loading historical data...
Loading historical data...
Loading historical data...
Loading historical data...
Loading historical data...

Documentation

Showing up to 5 results
|